EST,Max TemperatureF,Mean TemperatureF,Min TemperatureF,Max Dew PointF,MeanDew PointF,Min DewpointF,Max Humidity, Mean Humidity, Min Humidity, Max Sea Level PressureIn, Mean Sea Level PressureIn, Min Sea Level PressureIn, Max VisibilityMiles, Mean VisibilityMiles, Min VisibilityMiles, Max Wind SpeedMPH, Mean Wind SpeedMPH, Max Gust SpeedMPH,PrecipitationIn, CloudCover, Events, WindDirDegrees
2012-2-1,52,46,37,50,42,33,100,85,71,30.10,30.00,29.88,10,8,4,22,13,31,0.13,6,Rain,281
2012-2-2,42,35,28,33,30,27,93,77,61,30.40,30.26,30.10,10,9,6,13,6,,0.00,4,,309
2012-2-3,50,38,27,36,31,25,92,81,54,30.50,30.42,30.36,10,7,4,10,5,,0.00,1,,105
2012-2-4,36,34,32,33,31,30,96,89,81,30.35,30.25,30.14,10,4,1,12,7,,0.33,8,Rain-Snow,60
2012-2-5,39,32,26,32,28,25,100,91,68,30.26,30.20,30.13,10,4,0,7,3,,0.00,3,Fog,260
2012-2-6,46,37,28,35,30,25,92,80,58,30.22,30.16,30.09,10,8,3,18,8,25,0.00,0,,246
2012-2-7,37,34,28,30,27,22,89,82,75,30.32,30.25,30.13,10,7,4,17,9,22,0.00,8,,4
2012-2-8,33,30,24,23,22,19,88,77,56,30.32,30.29,30.24,10,7,1,15,9,,0.00,6,Snow,357
2012-2-9,33,28,23,22,20,18,88,71,60,30.30,30.23,30.16,10,10,9,17,11,26,0.00,3,,246
2012-2-10,32,28,23,30,26,18,93,86,69,30.15,29.95,29.80,10,4,1,16,11,24,0.01,8,Snow,201
2012-2-11,32,21,10,30,10,0,93,77,47,30.27,30.07,29.79,10,6,1,24,17,34,0.00,7,Snow,313
2012-2-12,28,22,16,18,13,9,74,71,64,30.25,30.21,30.16,10,10,10,21,15,28,0.00,5,,259
2012-2-13,33,26,19,23,15,11,78,61,43,30.20,30.12,29.99,10,10,6,15,10,18,0.00,3,Snow,228
2012-2-14,34,31,28,30,29,26,100,90,81,30.08,29.93,29.86,10,4,1,13,9,,0.07,8,Snow,208
2012-2-15,39,36,32,35,31,27,89,81,73,30.24,30.15,30.04,10,8,6,13,8,,0.03,7,Rain,182
2012-2-16,45,38,32,43,38,28,100,89,76,30.13,29.99,29.94,10,5,1,15,8,21,0.01,7,Rain,233
2012-2-17,43,36,28,31,28,25,92,75,49,30.18,30.12,30.03,10,8,4,13,8,21,0.00,2,,232
2012-2-18,39,32,26,30,24,19,88,66,46,30.19,30.08,29.99,10,10,6,16,12,25,0.00,3,,303
2012-2-19,34,28,23,21,19,17,81,70,56,30.20,30.14,30.08,10,10,10,20,9,25,0.00,2,,40
2012-2-20,37,28,19,23,20,16,92,71,51,30.38,30.28,30.11,10,10,8,10,5,,0.00,1,,79
2012-2-21,44,37,30,39,33,23,93,78,64,30.09,29.79,29.70,10,9,4,21,14,33,0.08,6,Rain-Snow,196
2012-2-22,54,44,35,38,35,32,100,82,49,29.74,29.53,29.41,10,8,4,16,10,22,0.02,6,Rain,235
2012-2-23,42,37,32,39,35,32,100,93,82,29.64,29.53,29.44,10,3,0,15,6,22,0.62,7,Fog-Rain,163
2012-2-24,44,38,32,38,33,26,100,86,66,29.82,29.49,29.31,10,6,0,38,15,50,0.04,8,Fog-Rain-Snow,251
2012-2-25,33,30,26,27,21,18,86,72,59,30.37,30.04,29.80,10,8,2,29,22,37,0.00,8,Snow,270
2012-2-26,44,32,21,24,21,17,89,66,43,30.43,30.30,30.17,10,10,10,20,7,25,0.00,0,,168
2012-2-27,48,38,27,28,24,21,78,55,37,30.49,30.25,30.12,10,10,10,28,14,41,0.00,1,,261
2012-2-28,46,34,21,30,24,18,89,69,44,30.51,30.37,30.07,10,7,5,14,4,,0.00,3,,111
2012-2-29,66,52,37,57,40,31,97,74,36,30.01,29.67,29.49,10,10,10,28,11,38,0.46,6,Rain,154